This is the latest recevied weather packets stored in our database for station/object OK1FET-4. If no packets are shown the sender has not sent any weather packets the latest 10 day(s).
| Time | Temp. | Humidity | Pressure | Rain* | Wind** | Luminosity | Snow |
|---|---|---|---|---|---|---|---|
| 1788429214 | 22.22° C | 54% | 1021.4 hPa | - | - | - | - |
| 1788428913 | 22.22° C | 55% | 1021.5 hPa | - | - | - | - |
| 1788428612 | 21.67° C | 58% | 1021.5 hPa | - | - | - | - |
| 1788428311 | 21.67° C | 57% | 1021.5 hPa | - | - | - | - |
| 1788428010 | 21.67° C | 55% | 1021.5 hPa | - | - | - | - |
| 1788427709 | 21.67° C | 58% | 1021.4 hPa | - | - | - | - |
| 1788427408 | 21.67° C | 57% | 1021.3 hPa | - | - | - | - |
| 1788427107 | 21.11° C | 64% | 1021.6 hPa | - | - | - | - |
| 1788426806 | 20.56° C | 63% | 1021.6 hPa | - | - | - | - |
| 1788426505 | 20.56° C | 71% | 1021.5 hPa | - | - | - | - |
| 1788426204 | 21.11° C | 100% | 1021.6 hPa | - | - | - | - |
| 1788425902 | 21.11° C | 93% | 1021.6 hPa | - | - | - | - |
| 1788425601 | 21.11° C | 100% | 1021.7 hPa | - | - | - | - |
| 1788425300 | 20.56° C | 89% | 1021.8 hPa | - | - | - | - |
| 1788424999 | 20° C | 98% | 1021.8 hPa | - | - | - | - |
| 1788424698 | 19.44° C | 98% | 1021.8 hPa | - | - | - | - |
| 1788424397 | 20° C | 89% | 1021.9 hPa | - | - | - | - |
| 1788424096 | 20° C | 91% | 1021.8 hPa | - | - | - | - |
| 1788423795 | 20° C | 100% | 1021.9 hPa | - | - | - | - |
| 1788423496 | 20° C | 100% | 1021.8 hPa | - | - | - | - |
| 1788423193 | 20° C | 100% | 1021.9 hPa | - | - | - | - |
| 1788422892 | 20° C | 100% | 1022 hPa | - | - | - | - |
| 1788422590 | 20° C | 100% | 1022 hPa | - | - | - | - |
| 1788422289 | 20° C | 100% | 1021.9 hPa | - | - | - | - |
| 1788421988 | 19.44° C | 100% | 1022 hPa | - | - | - | - |
* Rain since midnight (hover to see other rain measurements)
** Current wind speed in m/s (hover to see current wind gust speed)